Weather History for KRMG - December, 2012

Change the Weather History Date:

Thursday, December 20, 2012

  Actual Average Record
Temperature  
Mean Temperature 47 °F 42 °F  
Max Temperature 55 °F 52 °F 68 °F (2013)
Min Temperature 39 °F 32 °F 12 °F (2000)
Degree Days  
Heating Degree Days 18 23  
Month to date heating degree days 431  
Since 1 July heating degree days 1038  
Moisture  
Dew Point 45 °F    
Average Humidity 88    
Maximum Humidity 100    
Minimum Humidity 53    
Precipitation  
Precipitation 0.16 in 0.12 in 0.93 in (2002)
Month to date precipitation 3.29  
Year to date precipitation 50.83  
Sea Level Pressure  
Sea Level Pressure 29.81 in    
Wind  
Wind Speed 4 mph (South)    
Max Wind Speed 22 mph    
Max Gust Speed 32 mph    
Visibility 7 miles    
Events Rain    
T = Trace of Precipitation, MM = Missing Value Source: NWS Daily Summary

Daily Weather History Graph

Daily Weather History Graph

Search for Another Location

Airport or City:

Trip Planner

Search our weather history database for the weather conditions in past years. The results will help you decide how hot, cold, wet, or windy it might be!

Date:

Astronomy

Dec. 20, 2012 Rise Set
Actual Time 7:42 AM EST 5:34 PM EST
Civil Twilight 7:14 AM EST 6:02 PM EST
Nautical Twilight 6:43 AM EST 6:33 PM EST
Astronomical Twilight 6:12 AM EST 7:04 PM EST
Moon 12:39 PM EST (12/20) 12:42 AM EST (12/20)
Length of Visible Light 10h 47m
Length of Day
9h 51m
First Quarter, 55% of the Moon is Illuminated
Dec 20
First Quarter
Dec 28
Full
Jan 4
Last Quarter
Jan 11
New
Jan 18
First Quarter

Hourly Weather History & Observations

Time (EST) Temp. Windchill Dew Point Humidity Pressure Visibility Wind Dir Wind Speed Gust Speed Precip Events Conditions
12:53 AM 44.1 °F - 44.1 °F 100% 30.01 in 4.0 mi Calm Calm - N/A   Clear
1:53 AM 41.0 °F - 41.0 °F 100% 30.01 in 2.0 mi Calm Calm - N/A   Clear
2:04 AM 41.0 °F - 41.0 °F 100% 30.02 in 7.0 mi Calm Calm - N/A   Clear
2:53 AM 41.0 °F - 41.0 °F 100% 29.97 in 7.0 mi Calm Calm - N/A   Clear
3:53 AM 42.1 °F - 41.0 °F 96% 29.92 in 10.0 mi Calm Calm - N/A   Partly Cloudy
4:53 AM 52.0 °F - 42.1 °F 69% 29.89 in 10.0 mi SE 13.8 mph 19.6 mph 0.00 in Rain Light Rain
5:53 AM 48.9 °F - 45.0 °F 86% 29.87 in 10.0 mi Calm Calm - 0.12 in Rain Light Rain
6:53 AM 48.0 °F - 46.9 °F 96% 29.86 in 7.0 mi East 4.6 mph - 0.03 in Rain Light Rain
7:08 AM 48.2 °F - 46.4 °F 93% 29.87 in 2.5 mi East 3.5 mph - 0.07 in Rain Light Rain
7:17 AM 48.2 °F - 46.4 °F 93% 29.87 in 4.0 mi NE 4.6 mph - 0.11 in Rain Rain
7:53 AM 48.0 °F - 46.9 °F 96% 29.86 in 3.0 mi East 4.6 mph - 0.22 in Rain Heavy Rain
8:01 AM 48.2 °F - 46.4 °F 93% 29.89 in 2.5 mi Calm Calm - 0.04 in Rain Rain
8:22 AM 48.2 °F - 46.4 °F 93% 29.86 in 3.0 mi ESE 9.2 mph - 0.18 in Rain Rain
8:51 AM 48.2 °F - 48.2 °F 100% 29.85 in 7.0 mi ESE 6.9 mph - 0.22 in Rain Light Rain
8:53 AM 48.0 °F - 48.0 °F 100% 29.85 in 9.0 mi ESE 8.1 mph - 0.22 in Rain Light Rain
9:53 AM 48.9 °F - 46.9 °F 93% 29.81 in 10.0 mi SE 8.1 mph - 0.01 in   Overcast
10:53 AM 51.1 °F - 48.9 °F 92% 29.75 in 10.0 mi SE 6.9 mph - 0.00 in   Overcast
11:10 AM 51.8 °F - 50.0 °F 94% 29.73 in 8.0 mi SSE 6.9 mph - 0.00 in Rain Light Rain
11:53 AM 53.1 °F - 53.1 °F 100% 29.67 in 9.0 mi Variable 6.9 mph - 0.03 in Rain Light Rain
12:06 PM 53.6 °F - 53.6 °F 100% 29.67 in 1.8 mi Variable 3.5 mph - 0.04 in Rain Heavy Rain
12:27 PM 53.6 °F - 53.6 °F 100% 29.69 in 3.0 mi SSW 3.5 mph - 0.21 in Rain Light Rain
12:40 PM 55.4 °F - 53.6 °F 94% 29.70 in 2.0 mi SSW 3.5 mph - 0.24 in Rain Rain
12:53 PM 55.0 °F - 55.0 °F 100% 29.69 in 1.5 mi SW 6.9 mph - 0.28 in Rain Rain
1:04 PM 55.4 °F - 55.4 °F 100% 29.69 in 1.2 mi Variable 5.8 mph 16.1 mph 0.07 in Rain Rain
1:07 PM 55.4 °F - 55.4 °F 100% 29.69 in 1.5 mi WSW 8.1 mph - 0.08 in Rain Rain
1:11 PM 53.6 °F - 51.8 °F 94% 29.68 in 3.0 mi WSW 9.2 mph 16.1 mph 0.09 in Rain Light Rain
1:53 PM 53.1 °F - 52.0 °F 96% 29.66 in 5.0 mi Calm Calm - 0.12 in Rain Light Rain
2:00 PM 53.6 °F - 53.6 °F 100% 29.66 in 8.0 mi Calm Calm - 0.00 in Rain Light Rain
2:13 PM 53.6 °F - 51.8 °F 94% 29.66 in 10.0 mi Variable 6.9 mph - 0.00 in   Overcast
2:53 PM 53.1 °F - 48.9 °F 86% 29.66 in 10.0 mi Variable 5.8 mph - 0.00 in   Overcast
3:53 PM 54.0 °F - 48.0 °F 80% 29.68 in 10.0 mi Variable 6.9 mph - N/A   Scattered Clouds
4:53 PM 53.1 °F - 41.0 °F 64% 29.71 in 10.0 mi West 13.8 mph 28.8 mph N/A   Mostly Cloudy
5:53 PM 46.9 °F - 32.0 °F 56% 29.81 in 10.0 mi West 21.9 mph 32.2 mph N/A   Scattered Clouds
7:53 PM 44.1 °F 40.1 °F 30.0 °F 58% 29.86 in 10.0 mi West 6.9 mph - N/A   Overcast
8:53 PM 45.0 °F 39.3 °F 30.0 °F 56% 29.88 in 10.0 mi West 11.5 mph - N/A   Overcast
9:53 PM 43.0 °F 36.4 °F 27.0 °F 53% 29.90 in 10.0 mi West 12.7 mph 23.0 mph N/A   Overcast
10:53 PM 43.0 °F 38.2 °F 28.0 °F 56% 29.90 in 10.0 mi West 8.1 mph 18.4 mph N/A   Overcast
11:53 PM 43.0 °F 35.7 °F 28.0 °F 56% 29.92 in 10.0 mi West 15.0 mph 29.9 mph N/A   Overcast